Regional Weather Roundup
Issued by NWS Albany, NY

Home | Current Version | Previous Version | Text Only | Print | Product List | Glossary On
Versions: 1 2 3 4 5 6 7 8 9 10 11 12 13 14 15 16 17 18 19 20 21 22 23 24 25 26 27 28
000
ASUS41 KALY 281010
RWRALY

NEW YORK STATE HOURLY WEATHER ROUNDUP
NATIONAL WEATHER SERVICE ALBANY NY
600 AM EDT SUN AUG 28 2016

NOTE: "FAIR" INDICATES FEW OR NO CLOUDS BELOW 12,000 FEET WITH NO
SIGNIFICANT WEATHER AND/OR NO OBSTRUCTIONS TO VISIBILITY.

NYZ032-033-038>043-046>054-057>066-NYZ062>081-082-084-281100-
EAST


CITY           SKY/WX    TMP DP  RH WIND       PRES   REMARKS
ALBANY         PTCLDY    65  63  93 CALM      30.23R
GLENS FALLS    PTCLDY    60  57  89 W3        30.23R
POUGHKEEPSIE   PTCLDY    62  60  93 CALM      30.24R
NEWBURGH       CLEAR     64  61  88 CALM      30.26R
MONTGOMERY     CLEAR     60  59  96 CALM      30.26R
WHITE PLAINS   CLEAR     66  63  90 CALM      30.26R
ISLIP          PTCLDY    67  65  93 CALM      30.25R
NEW YORK CITY  PTCLDY    75  69  81 E5        30.24R
CENTRAL PARK   CLEAR     72  66  81 VRB3      30.27R
$$

NYZ005>009-017-018-044>046-055-056-281100-
CENTRAL


CITY           SKY/WX    TMP DP  RH WIND       PRES   REMARKS
FULTON         CLOUDY    70  65  84 SE5       30.15S
SYRACUSE       CLOUDY    67  64  90 E7        30.16S
ROME           CLOUDY    67  64  90 E6        30.21R
ELMIRA         PTCLDY    61  59  93 CALM      30.22R FOG
BINGHAMTON     CLEAR     65  60  84 S5        30.26R
MONTICELLO     CLEAR     59  57  94 CALM      30.30R
$$

NYZ026>034-041>043-087-281100-
NORTH


CITY           SKY/WX    TMP DP  RH WIND       PRES   REMARKS
WATERTOWN      CLOUDY    66  63  90 E5        30.14S
FORT DRUM      NOT AVBL
MASSENA        CLOUDY    65  58  78 CALM      30.17S
SARANAC LAKE   CLOUDY    58  55  90 CALM      30.23R
PLATTSBURGH    CLOUDY    62  58  86 CALM      30.19S
$$

NYZ001>004-010>016-019>021-085-281100-
WEST


CITY           SKY/WX    TMP DP  RH WIND       PRES   REMARKS
NIAGARA FALLS  CLEAR     73  66  78 CALM      30.12R
BUFFALO        MOCLDY    74  65  73 S9        30.13R
DUNKIRK        CLOUDY    75  66  73 S13       30.14R
JAMESTOWN      PTCLDY    70  63  78 S6        30.21S
WELLSVILLE     CLOUDY    72  64  76 S9        30.26S
ROCHESTER      CLOUDY    71  65  81 SW3       30.14R
PENN YAN       CLOUDY    71  64  78 SW8       30.19R
$$

             KEY
       WCI = WIND CHILL INDEX
       VSB = VISIBILITY
       HX  = HEAT INDEX
$$




USA.gov is the U.S. government's official web portal to all federal, state and local government web resources and services.